Location: Cudham
(51.3000°N, 0.0667°E)
Time: 14:27:24
(UTC+00:00)

CENTAUR R/B - Pass Details

Date: 19 May 2025
Orbit: 644 x 1537 km, 63.4° (Epoch: 18 June)

Event Time Altitude Azimuth Distance (km) Brightness Sun altitude
Rises 21:20:38 0° 302° (WNW) 3,841 7.1 -11.0°
Reaches altitude 10° 21:23:19 10° 311° (NW) 3,015 6.5 -11.2°
Maximum altitude 21:30:11 39° 19° (NNE) 1,860 4.3 -11.9°
Drops below altitude 10° 21:38:18 10° 85° (E) 3,573 5.2 -12.6°
Sets 21:41:45 0° 93° (E) 4,625 5.7 -12.9°
